Theta_e
322 319 319 319 318 318 319 320 320 320 318 318 316 316 315 318 317 316 315 315 315 315 315 318 319 317 315 313 317 316 322 323 323 323 323 323 323 322 322 321 321 321 321 323
320 319 320 319 319 319 318 319 319 318 318 316 317 317 315 316 317 317 315 315 315 315 317 319 319 317 319 316 314 316 319 322 324 324 322 323 322 323 324 322 322 323 324 323
321 322 321 320 320 320 319 319 319 319 319 317 316 316 318 317 318 319 315 315 315 315 317 318 318 317 319 319 312 317 317 320 320 324 323 323 325 324 325 324 322 323 326 326
320 320 321 321 321 319 319 318 319 320 318 317 317 317 318 318 317 317 315 315 315 315 317 318 319 318 317 321 317 317 317 320 319 323 325 325 325 324 326 325 323 325 326 326
322 320 320 321 321 320 320 320 318 319 318 317 319 317 318 318 319 320 314 315 315 316 316 319 319 318 318 322 320 317 320 319 318 324 326 326 326 326 327 326 324 322 324 325
321 322 320 321 321 320 320 318 318 316 316 317 317 318 317 320 320 321 316 315 315 316 317 318 319 317 320 322 322 317 323 321 318 321 324 324 324 323 323 327 327 328 324 326
321 320 320 320 319 317 317 315 316 318 318 320 319 320 319 319 319 321 319 316 316 316 317 318 319 318 321 320 322 320 317 320 319 317 320 324 322 321 320 323 327 328 328 328
321 323 320 320 319 319 315 315 316 319 319 320 322 324 323 320 324 321 321 319 317 316 317 318 319 318 321 321 321 322 320 318 320 318 317 319 321 320 320 323 324 328 327 329
321 322 321 319 318 316 317 318 316 318 319 321 322 324 326 324 323 321 318 316 317 316 317 318 319 318 320 321 321 322 321 318 320 319 318 318 318 319 319 321 322 325 325 328
319 321 319 320 320 319 316 316 318 315 321 321 321 326 327 327 325 323 316 315 316 317 317 318 319 318 320 321 321 322 321 314 317 320 318 317 316 314 314 318 320 321 325 326
317 319 321 322 322 320 320 322 322 317 318 320 320 324 324 327 326 324 318 316 317 317 317 317 319 318 320 321 320 321 321 313 310 309 314 316 315 316 312 317 318 319 319 320
317 317 320 325 327 325 320 321 322 321 324 323 323 326 324 327 327 323 319 317 317 318 317 317 318 319 319 320 320 322 320 318 313 310 309 309 315 316 314 314 318 318 317 323
316 317 320 323 328 326 326 328 327 324 325 328 329 327 324 327 324 323 319 317 317 318 317 317 318 319 319 320 320 321 320 318 317 316 314 309 308 315 313 313 316 318 318 321
319 317 320 321 321 326 327 329 327 325 326 329 328 327 325 327 327 324 320 318 317 318 318 318 318 319 320 319 320 320 318 318 317 319 318 311 308 308 314 314 315 314 318 321
318 319 319 320 321 325 325 328 328 326 324 327 326 327 327 326 327 326 321 318 317 318 318 318 318 319 319 319 320 320 319 318 317 318 319 313 309 309 311 316 316 318 320 321
318 320 326 329 322 325 326 325 328 327 327 326 327 327 326 327 327 327 324 319 317 317 318 318 318 318 319 319 320 319 319 316 316 318 316 313 309 312 313 312 315 316 316 319
322 321 324 329 327 329 330 327 326 327 326 326 326 326 325 326 327 327 327 321 321 319 319 318 318 318 318 318 319 319 319 316 316 318 316 311 309 311 314 316 315 314 315 315
324 323 324 330 329 331 326 326 326 327 326 323 324 323 324 325 326 327 327 325 323 321 320 319 319 318 318 318 318 317 319 317 315 317 316 312 309 309 312 312 312 311 311 310
322 323 325 332 323 326 327 327 327 327 327 325 324 323 324 326 325 326 327 327 327 326 325 326 322 320 319 318 318 318 319 318 315 316 314 312 309 309 310 310 310 310 309 309
321 322 326 319 327 331 325 324 325 323 327 324 325 323 322 325 325 325 327 327 327 326 326 325 323 320 320 318 318 319 319 320 317 316 313 311 310 310 311 311 310 310 310 310
325 323 325 319 320 323 322 324 324 326 324 323 325 325 324 323 325 326 326 326 327 327 327 324 323 322 323 319 318 319 319 320 320 318 317 312 312 310 312 313 313 312 311 311
325 323 323 321 322 327 323 325 325 323 324 325 325 325 325 326 326 326 326 326 326 327 326 325 324 323 322 320 319 318 319 319 320 320 318 316 314 314 312 314 316 316 315 315
326 322 322 322 322 320 324 325 324 324 324 325 326 326 326 327 327 326 326 327 327 327 326 326 326 325 322 321 320 319 318 319 320 321 319 319 319 316 316 314 316 319 320 319
323 320 322 322 321 320 324 324 324 323 324 324 325 327 327 327 327 327 327 327 327 327 327 326 326 323 323 323 323 323 319 318 319 320 321 320 320 321 320 317 315 316 317 318
323 321 320 321 320 320 321 323 324 323 323 323 325 326 326 326 326 326 326 326 326 327 327 326 327 326 326 326 326 323 320 319 319 319 320 321 320 321 323 323 321 317 317 319
320 322 323 322 319 321 322 323 323 322 322 323 324 324 326 327 327 326 326 326 326 327 326 326 326 327 327 326 327 324 321 320 319 319 320 320 321 321 322 323 324 324 324 323
Wind_Speed
4 3 6 8 7 6 5 4 7 3 4 6 11 8 10 17 13 16 25 22 18 13 10 7 4 3 7 12 7 12 12 14 12 10 10 7 7 10 8 4 6 6 4 2
1 8 8 7 4 4 5 7 7 7 4 8 7 12 5 9 17 20 27 25 22 17 14 10 6 2 4 10 5 7 10 15 18 13 9 11 11 11 9 9 7 11 14 21
10 12 6 4 3 5 6 5 5 7 5 2 3 6 3 5 13 14 26 27 23 20 17 14 10 4 1 7 10 7 8 11 15 18 12 13 13 14 11 12 9 12 14 13
11 7 8 5 6 5 6 8 9 5 3 6 5 5 5 4 10 9 24 28 27 22 17 15 13 6 1 3 9 7 10 10 12 13 13 13 15 16 21 17 17 20 15 18
15 8 7 9 11 7 11 10 10 5 5 2 0 3 7 3 6 9 18 32 29 24 19 19 15 6 4 2 6 6 8 8 11 11 14 16 20 15 16 16 16 12 13 13
13 14 9 11 9 7 13 1 6 4 3 2 6 5 5 5 8 5 14 28 32 27 22 18 14 9 7 7 1 5 4 5 9 10 11 13 16 17 17 15 15 17 10 9
5 6 4 5 5 1 4 5 3 4 3 6 1 3 8 9 11 10 20 30 34 29 25 24 20 14 11 7 7 2 2 3 5 7 9 11 13 13 15 14 14 14 12 16
9 11 9 6 8 9 9 10 6 7 5 9 3 5 7 6 12 18 28 36 36 32 27 26 22 15 13 9 7 8 2 2 3 4 7 8 9 11 14 18 15 15 18 17
11 12 4 7 6 10 6 4 8 5 2 2 3 6 9 3 6 12 17 27 36 35 30 28 24 17 15 14 7 10 7 2 5 3 2 2 4 9 13 14 16 15 18 24
8 6 7 12 5 5 8 5 3 2 3 6 3 3 6 6 4 5 9 21 32 35 30 29 25 18 16 15 10 12 9 4 6 5 4 2 5 8 13 14 16 14 16 16
7 6 3 3 7 11 2 2 4 4 4 6 1 6 7 8 8 15 16 32 40 39 34 31 27 19 16 14 13 12 11 7 7 8 7 6 6 8 10 15 16 17 15 14
10 7 8 9 2 3 5 10 8 5 4 2 4 7 4 4 9 13 19 32 39 39 35 32 28 22 20 18 14 11 14 10 6 6 7 9 10 9 9 17 16 16 18 18
7 4 6 6 3 2 2 4 5 6 4 6 6 6 1 1 5 16 18 25 35 40 36 33 29 27 23 21 17 12 16 11 9 7 5 6 9 12 13 15 17 16 17 17
18 7 13 19 13 6 5 6 7 7 5 4 5 6 6 6 4 4 18 26 34 41 38 36 32 30 26 22 20 16 16 14 11 10 7 5 7 12 14 15 16 15 15 15
10 16 11 14 17 14 9 11 12 6 7 8 10 9 6 7 3 9 12 23 30 39 40 40 37 33 28 24 22 20 17 17 15 11 9 6 7 13 17 17 17 16 16 15
4 6 7 5 10 15 15 13 18 9 2 1 5 7 6 5 3 11 25 29 34 38 44 43 40 36 32 27 25 23 20 19 18 14 10 8 9 13 15 16 17 16 15 16
4 5 4 4 5 8 7 14 12 6 7 9 8 12 4 4 8 20 24 30 38 43 47 46 44 40 35 30 27 27 22 21 20 18 13 11 10 13 14 15 16 16 16 14
7 6 3 3 5 9 9 15 15 19 8 8 6 8 8 13 23 23 23 21 34 36 43 47 46 41 37 31 29 27 25 24 21 21 18 15 14 14 14 13 13 14 15 14
7 6 3 6 3 5 4 4 9 8 12 11 17 8 9 14 11 21 25 38 29 32 37 39 46 44 36 36 31 30 29 29 25 23 21 19 18 17 16 15 15 15 15 15
7 4 6 4 7 16 5 5 9 6 5 11 13 10 8 9 3 11 26 33 36 33 35 39 43 45 39 38 33 34 33 33 31 27 23 21 20 19 19 18 17 17 16 14
5 3 12 4 4 6 5 12 21 7 8 17 30 25 21 7 17 21 9 14 26 34 33 38 38 43 42 41 36 38 37 38 34 30 26 24 22 21 19 19 18 17 16 15
6 6 4 3 3 6 9 10 16 7 6 17 26 25 30 33 27 25 14 13 20 28 29 36 36 40 42 44 41 41 43 39 36 35 31 28 25 24 23 22 20 19 18 16
12 7 6 8 6 4 36 20 33 17 24 20 21 18 25 23 20 21 25 12 9 15 27 37 39 39 41 43 46 44 45 42 40 39 38 33 28 26 26 27 26 24 22 20
4 4 5 4 5 9 29 27 28 22 21 20 21 23 22 23 20 17 17 15 13 17 21 26 38 42 44 42 43 43 46 46 44 43 43 40 35 32 30 30 31 29 28 27
6 9 8 4 1 9 11 35 32 20 20 20 17 21 18 15 14 15 16 14 15 20 25 33 38 43 44 42 41 44 49 51 50 48 45 46 43 38 34 34 34 34 31 27
5 9 8 7 12 12 12 36 36 25 18 19 18 18 16 13 10 10 15 13 9 12 11 24 33 37 46 46 43 45 48 53 53 52 52 50 49 46 42 37 36 38 36 33
Wind_Direction
187 149 205 213 206 204 222 236 257 246 245 182 225 224 231 197 207 190 191 190 185 176 156 158 146 44 32 29 21 23 35 34 30 24 36 46 53 66 70 71 77 81 41 2
33 217 213 219 211 203 237 253 273 283 245 178 254 245 216 188 216 203 188 195 189 175 169 171 169 128 39 25 27 24 40 49 46 40 55 58 69 68 70 74 83 67 96 93
218 241 193 174 265 266 258 231 249 236 338 234 127 302 209 219 209 206 201 203 192 185 177 178 175 173 58 27 26 35 45 57 45 41 61 75 71 70 77 88 86 93 97 103
217 207 188 186 223 185 267 236 247 249 157 236 141 257 293 230 209 190 188 199 195 189 183 179 176 181 144 39 24 82 78 59 54 50 62 82 75 80 76 88 90 105 100 103
222 164 187 220 234 197 249 240 233 229 206 143 301 87 265 119 218 227 199 199 197 191 187 182 181 185 135 164 29 112 83 55 68 80 72 76 78 64 74 71 79 116 142 135
201 213 162 213 230 194 245 261 48 45 87 34 233 151 285 225 211 207 195 199 195 190 188 186 181 179 164 186 145 130 103 66 76 84 84 77 79 79 80 85 91 94 124 182
175 210 192 162 205 3 115 83 289 334 346 220 264 111 229 250 238 199 187 193 194 189 189 186 185 183 182 190 196 192 156 89 86 82 90 88 80 84 84 89 93 92 98 116
189 233 187 201 178 207 204 184 172 213 226 260 188 230 255 231 282 239 196 192 186 187 191 190 190 187 185 193 187 213 198 159 130 110 93 86 83 96 97 99 94 98 86 110
193 231 230 178 183 158 221 177 204 131 354 44 255 298 319 24 38 118 152 169 183 188 192 193 192 191 187 201 203 219 215 219 179 172 151 99 73 119 121 114 107 100 96 105
209 220 206 236 149 208 166 175 87 0 177 251 275 267 246 271 176 150 158 175 184 188 192 195 191 191 192 206 214 228 220 240 190 203 210 196 133 124 135 132 125 119 114 109
148 152 257 145 179 214 205 157 56 125 138 189 194 263 221 247 198 200 187 182 189 189 193 195 191 190 190 195 206 229 216 203 191 187 193 191 165 143 137 146 134 133 131 127
195 166 212 211 255 243 177 187 155 172 226 153 158 262 29 277 214 202 200 187 191 191 193 196 192 190 193 197 205 221 212 205 188 171 180 185 183 174 153 155 145 139 140 134
164 217 230 294 29 17 180 173 134 114 91 185 154 264 83 117 233 206 197 186 188 191 193 197 195 195 195 200 209 221 212 215 205 191 191 187 183 180 167 156 159 155 145 146
186 179 204 226 225 158 189 185 184 140 127 169 229 290 308 325 227 203 198 194 189 194 195 198 198 197 198 203 210 213 214 216 218 211 215 213 193 185 178 166 161 160 159 151
169 217 217 230 212 197 191 177 188 163 171 181 225 208 231 274 151 268 241 189 186 193 197 201 203 198 199 203 208 214 218 216 216 220 226 222 191 178 180 176 171 167 167 168
322 218 152 206 194 205 208 202 189 188 105 68 142 245 211 169 174 199 212 191 188 196 201 203 205 204 200 203 206 209 213 213 214 220 228 226 201 178 177 181 182 182 180 180
221 147 122 226 196 119 252 194 171 172 186 172 193 230 162 286 251 234 226 203 199 202 204 206 206 208 205 204 203 207 208 211 212 215 220 220 209 186 182 186 186 189 192 193
210 124 107 124 118 199 265 173 181 191 187 178 204 176 184 218 254 272 240 236 222 210 209 212 210 210 210 206 204 204 207 211 211 213 217 209 202 190 184 182 180 182 187 190
201 122 108 148 204 289 318 174 143 159 228 202 203 193 211 230 309 275 251 236 241 239 229 222 218 212 210 209 207 204 205 212 212 212 214 208 199 192 186 179 174 172 171 168
82 98 136 117 191 230 185 203 163 81 266 192 191 201 190 141 176 249 244 229 237 250 248 232 221 215 211 210 209 205 206 209 213 212 209 207 201 197 190 181 175 171 167 162
123 72 182 134 207 277 233 154 140 144 233 181 195 210 178 182 217 247 248 256 248 254 237 227 223 219 218 210 210 208 209 210 211 214 209 206 202 200 193 187 185 180 177 178
149 145 183 106 143 222 161 162 168 186 149 183 197 195 195 210 226 231 222 281 255 242 233 226 225 226 220 213 209 214 213 212 209 214 212 209 206 203 197 195 191 191 192 192
192 179 173 183 199 204 168 184 199 188 179 183 187 197 202 204 212 210 202 234 249 249 240 238 233 227 224 218 215 218 218 213 211 212 215 212 208 210 208 203 201 201 204 210
203 135 149 123 205 175 185 201 204 195 197 204 206 189 192 209 215 198 213 229 256 286 261 236 228 224 222 223 221 227 222 216 214 214 215 214 212 212 216 215 214 212 213 219
182 143 154 218 234 142 202 212 210 211 221 236 213 205 216 227 240 235 245 246 255 274 261 240 227 226 228 229 230 225 223 222 216 216 216 216 216 216 218 224 225 224 227 230
190 165 175 205 192 175 197 213 217 213 212 218 224 218 220 228 240 229 230 210 213 240 244 226 230 235 237 232 232 226 223 224 221 218 218 218 218 219 221 224 231 235 240 244